Flag for Germany Weather past 2 weeks in Delbrück, North Rhine-Westphalia, Germany

Now
41 °F

Passing clouds.


Feels Like: 33 °F
Forecast: 40 / 44 °F
Wind: 16 mph from West

Location: Paderborn / Lippstadt

Current Time: Dec 20, 2014 at 12:14:55 AM

Latest Report: Dec 19, 2014 at 11:50 PM


Visibility: N/A

Pressure: 30.04 "Hg

Humidity: 76%

Dew point: 34 °F

Location of DelbrückLocation

Historic Weather in Delbrück — Graph

°F

Delbrück temperature yesterday

Maximum temperature yesterday: 52 °F (at 12:20 AM)
Minimum temperature yesterday: 41 °F (at 5:50 PM)
Average temperature yesterday: 47 °F

Past Weeks' High & Low Weather Summary

 TemperatureHumidityPressure
High54 °F (Dec 18, 5:50 PM)100% (Dec 5, 6:20 AM)30.36 "Hg (Dec 5, 6:20 AM)
Low27 °F (Dec 15, 12:50 AM)56% (Dec 10, 5:20 AM)29.39 "Hg (Dec 12, 2:50 PM)
Average39 °F87%29.92 "Hg
* Reported Dec 4 10:20 PM — Dec 19 10:50 PM, Delbrück, Weather by CustomWeather, © 2014

Note: Actual official high and low records may vary slightly from our data, if they occured in-between our weather recording intervals... More about our weather records

Advertising

Delbrück weather history for previous 24 hours

 ConditionsComfort  
Time TempWeatherWind HumidityBarometerVisibility
10:50 PM
Dec 19
41 °FPassing clouds.15 mph81%30.01 "HgN/A
10:20 PM41 °FPassing clouds.15 mph81%30.01 "HgN/A
9:50 PM41 °FPassing clouds.13 mph81%30.01 "HgN/A
9:20 PM41 °FPartly cloudy.15 mph81%30.01 "HgN/A
8:50 PM41 °FPassing clouds.14 mph81%29.98 "HgN/A
8:20 PM41 °FPassing clouds.13 mph81%29.98 "HgN/A
7:50 PM41 °FPassing clouds.15 mph81%29.95 "HgN/A
7:20 PM41 °FPassing clouds.10 mph87%29.95 "HgN/A
6:50 PM41 °FPassing clouds.12 mph87%29.92 "HgN/A
6:20 PM41 °FPassing clouds.9 mph87%29.92 "HgN/A
5:50 PM41 °FPassing clouds.9 mph87%29.92 "HgN/A
5:20 PM43 °FPassing clouds.12 mph81%29.89 "HgN/A
4:50 PM43 °FPassing clouds.10 mph87%29.89 "HgN/A
4:20 PM43 °FPassing clouds.12 mph93%29.86 "HgN/A
3:50 PM45 °FLight rain. Partly sunny.9 mph93%29.86 "HgN/A
3:20 PM45 °FLight rain. Partly sunny.10 mph93%29.83 "HgN/A
2:50 PM45 °FRain. Partly sunny.8 mph100%29.83 "Hg4 mi
2:20 PM46 °FRain. Partly sunny.12 mph100%29.80 "Hg4 mi
1:50 PM48 °FRain. Broken clouds.15 mph100%29.77 "Hg4 mi
1:20 PM50 °FLight rain. Partly sunny.17 mph94%29.77 "Hg5 mi
12:50 PM50 °FLight rain. Partly sunny.21 mph94%29.77 "Hg5 mi
12:20 PM50 °FLight rain. Partly sunny.22 mph94%29.77 "Hg3 mi
11:50 AM50 °FLight rain. Partly sunny.24 mph94%29.77 "Hg3 mi
11:20 AM50 °FLight rain. Partly sunny.25 mph88%29.77 "Hg4 mi
10:50 AM50 °FLight rain. Partly sunny.26 mph88%29.77 "Hg4 mi
10:20 AM50 °FLight rain. Partly sunny.28 mph88%29.77 "Hg4 mi
9:50 AM50 °FLight rain. Partly sunny.26 mph88%29.77 "Hg4 mi
9:20 AM50 °FRain. Fog.23 mph94%29.77 "Hg3 mi
8:50 AM50 °FDrizzle. Partly sunny.23 mph88%29.80 "Hg4 mi
8:20 AM50 °FPartly cloudy.24 mph88%29.77 "HgN/A
7:50 AM50 °FLight rain. Partly cloudy.26 mph88%29.77 "HgN/A
7:20 AM50 °FLight rain. Partly cloudy.26 mph88%29.80 "HgN/A
6:50 AM50 °FLight rain. Passing clouds.25 mph94%29.80 "HgN/A
6:20 AM50 °FLight rain. Passing clouds.25 mph88%29.80 "HgN/A
5:50 AM52 °FPassing clouds.22 mph82%29.80 "HgN/A
5:20 AM50 °FPassing clouds.22 mph88%29.80 "HgN/A
4:20 AM52 °FPassing clouds.21 mph88%29.83 "HgN/A
3:50 AM50 °FPassing clouds.21 mph94%29.83 "HgN/A
3:20 AM52 °FPassing clouds.18 mph88%29.83 "HgN/A
2:50 AM50 °FPassing clouds.20 mph100%29.86 "HgN/A
2:20 AM50 °FPassing clouds.20 mph100%29.86 "Hg4 mi
1:50 AM50 °FPassing clouds.18 mph100%29.86 "Hg4 mi
1:20 AM50 °FLight rain. Passing clouds.18 mph100%29.86 "Hg5 mi
12:50 AM52 °FLight rain. Passing clouds.18 mph94%29.86 "Hg5 mi
12:20 AM52 °FLight rain. Passing clouds.18 mph94%29.86 "HgN/A
Weather by CustomWeather, © 2014

See weather overviewHow to use our weather pages